Terug naar catalogus

CSTP-4.2

ActiefWetenschapSSO
NORAD 64883·PAYLOAD·🇷🇺 Russia
Deze satellietnaam is nog niet bevestigd door officiële bronnen.

Gelanceerd Jul 25, 2025 vanaf Vostochny Cosmodrome

Loading…

Volgende Passages (komende 24 uur)

TLE

VersSource: Space-Track

Epoch: Sep 14, 2026, 14:50 UTC

1 64883U 25155H   26257.61843336  .00007369  00000-0  24943-3 0  9993
2 64883  97.4682 226.5392 0006072 199.6339 160.4669 15.30885369 94431

Volg CSTP-4.2 in realtime met AllMySat

Download on the App Store